Weather History for KLND - December, 2013

Change the Weather History Date:

Sunday, December 15, 2013

  Actual Average Record
Temperature  
Mean Temperature 35 °F 20 °F  
Max Temperature 47 °F 31 °F 60 °F (1980)
Min Temperature 23 °F 9 °F -22 °F (1926)
Degree Days  
Heating Degree Days 30 45  
Month to date heating degree days 769 657  
Since 1 July heating degree days 2657 2530  
Cooling Degree Days 0 0  
Month to date cooling degree days 0 0  
Year to date cooling degree days 743 472  
Moisture  
Dew Point 19 °F    
Average Humidity 55    
Maximum Humidity 68    
Minimum Humidity 41    
Precipitation  
Precipitation 0.00 in 0.02 in 0.48 in (1915)
Month to date precipitation 0.24 0.32  
Year to date precipitation 15.09 12.40  
Snow  
Snow 0.00 in 0.30 in - ()
Month to date snowfall 4.3 5.5  
Since 1 July snowfall 33.8 31.1  
Snow Depth 1.00 in    
Sea Level Pressure  
Sea Level Pressure 30.18 in    
Wind  
Wind Speed 5 mph (SSE)    
Max Wind Speed 16 mph    
Max Gust Speed 18 mph    
Visibility 10 miles    
Events      
T = Trace of Precipitation, MM = Missing Value Source: NWS Daily Summary

Daily Weather History Graph

Daily Weather History Graph

Search for Another Location

Airport or City:

Trip Planner

Search our weather history database for the weather conditions in past years. The results will help you decide how hot, cold, wet, or windy it might be!

Date:

Astronomy

Dec. 15, 2013 Rise Set
Actual Time 7:38 AM MST 4:41 PM MST
Civil Twilight 7:06 AM MST 5:13 PM MST
Nautical Twilight 6:30 AM MST 5:49 PM MST
Astronomical Twilight 5:56 AM MST 6:24 PM MST
Moon 3:49 PM MST (12/15) 5:56 AM MST (12/15)
Length of Visible Light 10h 07m
Length of Day
9h 02m
Waxing Gibbous, 98% of the Moon is Illuminated
Dec 15
Waxing Gibbous
Dec 17
Full
Dec 25
Last Quarter
Jan 1
New
Jan 7
First Quarter

Hourly Weather History & Observations

Time (MST) Temp. Windchill Dew Point Humidity Pressure Visibility Wind Dir Wind Speed Gust Speed Precip Events Conditions
12:53 AM 28.0 °F 24.2 °F 17.1 °F 63% 30.20 in 10.0 mi East 3.5 mph - N/A   Clear
1:53 AM 32.0 °F 23.0 °F 18.0 °F 56% 30.17 in 10.0 mi West 11.5 mph - N/A   Clear
2:53 AM 35.1 °F 30.1 °F 18.0 °F 50% 30.16 in 10.0 mi WSW 5.8 mph - N/A   Clear
3:53 AM 28.0 °F 18.6 °F 17.1 °F 63% 30.20 in 10.0 mi ESE 10.4 mph - N/A   Clear
4:53 AM 28.0 °F 24.2 °F 17.1 °F 63% 30.20 in 10.0 mi ENE 3.5 mph - N/A   Clear
5:53 AM 28.0 °F 24.2 °F 17.1 °F 63% 30.22 in 10.0 mi East 3.5 mph - N/A   Clear
6:53 AM 27.0 °F 21.6 °F 17.1 °F 66% 30.23 in 10.0 mi West 4.6 mph - N/A   Clear
7:53 AM 28.0 °F 18.6 °F 17.1 °F 63% 30.21 in 10.0 mi ESE 10.4 mph - N/A   Clear
8:53 AM 30.0 °F 22.4 °F 18.0 °F 61% 30.21 in 10.0 mi East 8.1 mph - N/A   Clear
9:53 AM 30.9 °F 24.3 °F 19.9 °F 64% 30.22 in 10.0 mi ESE 6.9 mph - N/A   Clear
10:53 AM 36.0 °F 33.3 °F 19.9 °F 52% 30.20 in 10.0 mi SSE 3.5 mph - N/A   Clear
11:53 AM 37.0 °F 33.3 °F 21.0 °F 52% 30.18 in 10.0 mi South 4.6 mph - N/A   Clear
12:53 PM 39.9 °F - 21.9 °F 49% 30.16 in 10.0 mi Calm Calm - N/A   Clear
1:53 PM 42.1 °F 40.2 °F 23.0 °F 47% 30.11 in 10.0 mi SE 3.5 mph - N/A   Clear
2:53 PM 44.1 °F 42.5 °F 25.0 °F 47% 30.09 in 10.0 mi SSW 3.5 mph - N/A   Clear
3:53 PM 45.0 °F 43.5 °F 23.0 °F 42% 30.12 in 10.0 mi SSW 3.5 mph - N/A   Clear
4:53 PM 39.9 °F - 19.9 °F 45% 30.15 in 10.0 mi Calm Calm - N/A   Clear
5:53 PM 35.1 °F 31.0 °F 21.0 °F 57% 30.18 in 10.0 mi West 4.6 mph - N/A   Clear
6:53 PM 37.0 °F - 19.0 °F 48% 30.20 in 10.0 mi Calm Calm - N/A   Clear
7:53 PM 32.0 °F 26.4 °F 19.0 °F 59% 30.22 in 10.0 mi SSW 5.8 mph - N/A   Clear
8:53 PM 27.0 °F 18.7 °F 17.1 °F 66% 30.22 in 10.0 mi East 8.1 mph - N/A   Clear
9:53 PM 28.9 °F 18.2 °F 18.0 °F 64% 30.22 in 10.0 mi West 13.8 mph - N/A   Clear
10:53 PM 33.1 °F 26.9 °F 17.1 °F 52% 30.17 in 10.0 mi WSW 6.9 mph - N/A   Clear
11:53 PM 28.0 °F 24.2 °F 16.0 °F 61% 30.18 in 10.0 mi SE 3.5 mph - N/A   Clear